Regional Weather Roundup
Issued by NWS

Home | Current Version | Previous Version | Text Only | Print | Product List | Glossary On
Versions: 1 2 3 4 5 6 7 8 9 10 11 12 13 14 15 16 17 18 19 20 21 22 23 24 25 26 27 28 29 30 31 32 33 34 35 36 37 38 39 40 41 42 43 44 45 46 47 48 49 50
000
ASUS43 KMPX 011310
RWRMN
WEATHER ROUNDUP FOR MINNESOTA
NATIONAL WEATHER SERVICE TWIN CITIES/CHANHASSEN MN
800 AM CDT MON SEP 01 2014


NOTE: "FAIR" INDICATES FEW OR NO CLOUDS BELOW 12,000 FEET WITH NO
SIGNIFICANT WEATHER AND/OR OBSTRUCTIONS TO VISIBILITY. N/A MEANS
CURRENT SKY AND/OR WEATHER CONDITIONS ARE NOT AVAILABLE.

MNZ060>063-068>070-011400-
   Twin Cities Metro

CITY           SKY/WX    TMP DP  RH WIND       PRES   REMARKS
TWIN CITIES    PTSUNNY   66  64  93 CALM      29.65R
ST PAUL        CLOUDY    66  64  93 SE5       29.65R
CRYSTAL        PTSUNNY   67  63  87 W3        29.62S
BLAINE         PTSUNNY   66  66 100 NW5       29.63F
LAKEVILLE      CLOUDY    64  63  94 S3        29.66R
EDEN PRAIRIE   PTSUNNY   67  65  93 CALM      29.64R
SOUTH ST PAUL  CLOUDY    66  64  93 S3        29.65R
LAKE ELMO      CLOUDY    64  64 100 S5        29.65F
$$
MNZ001>005-007-008-013>017-022>024-027-028-011400-
   Northwest Minnesota

CITY           SKY/WX    TMP DP  RH WIND       PRES   REMARKS
BEMIDJI        CLOUDY    58  56  95 W9        29.68R
HALLOCK        FOG       52  52 100 CALM      29.68S VSB 3/4
ROSEAU         MOSUNNY   57  52  82 W8        29.66R
WARROAD        PTSUNNY   57  54  88 W6        29.65R
THIEF RVR FALL CLOUDY    57  55  94 NW8       29.69R
CROOKSTON      CLOUDY    54  52  94 W3        29.71R
FOSSTON        CLOUDY    55  55 100 W7        29.70R
DETROIT LAKES  FOG       55  55 100 N7        29.72R VSB 1/4
MOORHEAD       MOSUNNY   55  55 100 W3        29.72S
PARK RAPIDS    PTSUNNY   58  56  93 NW10      29.68R
MAHNOMEN       FOG       56  55  99 W6        29.70S VSB 1/4
$$
MNZ006-009>011-018-025>026-011400-
   North Central Minnesota

CITY           SKY/WX    TMP DP  RH WIND       PRES   REMARKS
BAUDETTE       CLOUDY    59  56  89 VRB3      29.63R
FLAG ISLAND    CLOUDY    59  57  94 NW16      29.60R
INTL FALLS     CLOUDY    59  58  96 NW10      29.60R
WASKISH        CLOUDY    61  57  88 W10G16    29.65R
BIG FORK       PTSUNNY   59  55  88 CALM      29.64R
LONGVILLE      PTSUNNY   59  57  94 W8        29.65S
GRAND RAPIDS   CLOUDY    59  55  88 NW12      29.63F
CRANE LAKE     CLOUDY    57  57 100 CALM      29.60R
ORR            CLOUDY    57  55  94 W7        29.58S
COOK           CLOUDY    57  57 100 W9        29.61S
WALKER         CLOUDY    57  56  95 W6        29.67R
$$
MNZ012-019>021-037-011400-
   Northeast Minnesota

CITY           SKY/WX    TMP DP  RH WIND       PRES   REMARKS
DULUTH         CLOUDY    62  58  86 NW10      29.62R
ELY            CLOUDY    57  55  94 W6        29.59R
HIBBING        CLOUDY    61  56  83 NW12      29.61F
EVELETH        CLOUDY    59  57  94 W6        29.62S
DULUTH HARBOR  CLOUDY    64  63  94 SW6       29.61R
TWO HARBORS    CLOUDY    61  55  82 W6        29.58R
SILVER BAY     LGT RAIN  61  61 100 W3        29.57R
GRAND MARAIS     N/A     62  61  96 W5        29.53R
G MARAIS ARPRT LGT RAIN  59  55  88 W3        29.57S
$$
MNZ029>031-032-039>041-046>048-054>057-064-011400-
   West Central Minnesota

CITY           SKY/WX    TMP DP  RH WIND       PRES   REMARKS
FERGUS FALLS   SUNNY     54  54 100 NW6       29.72S
WHEATON        SUNNY     57  55  94 NW6       29.73S
MORRIS         SUNNY     61  57  88 NW9       29.70S
ALEXANDRIA     MOSUNNY   61  58  90 NW8       29.71R
ELBOW LAKE     FAIR      56  55  95 NW8       29.71S
WADENA         MOSUNNY   57  55  94 CALM      29.69R
GLENWOOD       MOSUNNY   61  57  88 W9        29.70S
APPLETON       MOSUNNY   63  59  88 NW6       29.70R
BENSON         MOSUNNY   61  59  94 N7        29.70R
ORTONVILLE     SUNNY     63  55  77 NW8       29.71S
MADISON        MOSUNNY   64  63  94 NW5       29.71R
WILLMAR        FAIR      64  61  88 NW8       29.70R
$$
MNZ033>034-036-042>043-049>051-058-059-011400-
   Central Minnesota

CITY           SKY/WX    TMP DP  RH WIND       PRES   REMARKS
ST CLOUD       CLOUDY    65  62  90 NW7       29.64F
SAUK CENTRE    FAIR      61  59  94 NW3       29.68S
PAYNESVILLE    MOSUNNY   60  60 100 SW6       29.68S
AITKIN         PTSUNNY   63  57  82 CALM      29.63F
PINE RIVER     PTSUNNY   59  59 100 W7        29.70S
BRAINERD       PTSUNNY   60  58  92 NW8       29.66F
STAPLES        PTSUNNY   59  57  94 NW7       29.68S
LONG PRAIRIE   FAIR      61  59  94 W7        29.68S
LITTLE FALLS   PTSUNNY   61  59  94 NW5       29.67S
LITCHFIELD     PTSUNNY   64  64 100 W7        29.67S
BUFFALO        CLOUDY    65  62  91 W6        29.65F
MAPLE LAKE     CLOUDY    65  64  96 NW7       29.66S
$$
MNZ037-044-045-052-053-011400-
   East Central Minnesota

CITY           SKY/WX    TMP DP  RH WIND       PRES   REMARKS
PRINCETON      CLOUDY    64  64 100 W2        29.64S
MORA           CLOUDY    61  59  94 CALM      29.65R
CAMBRIDGE      PTSUNNY   66  57  72 CALM      29.62S
RUSH CITY      CLOUDY    64  62  96 CALM      29.63S
MOOSE LAKE     CLOUDY    63  61  94 CALM      29.61F
HINCKLEY       CLOUDY    64  63  94 W3        29.63F
CLOQUET        CLOUDY    63  59  88 W5        29.63R
MCGREGOR       CLOUDY    61  59  94 W6        29.64S
$$
MNZ071>073-080-081-089-090-097-098-011400-
   Southwest Minnesota

CITY           SKY/WX    TMP DP  RH WIND       PRES   REMARKS
MONTEVIDEO     SUNNY     63  63 100 N6        29.71R
GRANITE FALLS  MOSUNNY   60  60 100 CALM      29.72R FOG
CANBY          MOSUNNY   63  61  93 W6        29.73R
MARSHALL       MOSUNNY   63  57  82 NW9       29.71R
REDWOOD FALLS  PTSUNNY   64  62  93 W7        29.69R
OLIVIA         MOSUNNY   63  59  88 NW6       29.68R
PIPESTONE      PTSUNNY   61  57  88 NW7       29.74S
WINDOM         MOSUNNY   63  61  94 NW8       29.71R
WORTHINGTON    PTSUNNY   63  61  94 NW6       29.74R
JACKSON        MOSUNNY   63  61  94 W5        29.72R
TRACY          CLOUDY    63  62  95 W6        29.73R
SLAYTON        CLOUDY    60  60  98 CALM      29.75R
$$
MNZ065>067-074>077-082>085-091>093-011400-
   South Central Minnesota

CITY           SKY/WX    TMP DP  RH WIND       PRES   REMARKS
MANKATO        MOSUNNY   64  59  82 SW5       29.68R
NEW ULM        MOSUNNY   63  63 100 SW5       29.69R
ST JAMES       MOSUNNY   68  63  83 W6        29.70R
FAIRMONT       PTSUNNY   64  61  88 W5        29.70R
GLENCOE        MOSUNNY   65  63  91 W7        29.66R
FARIBAULT      CLOUDY    68  63  83 CALM      29.68R
OWATONNA       PTSUNNY   66  63  88 CALM      29.68S
WASECA         PTSUNNY   63  59  88 CALM      29.70R FOG
ALBERT LEA     PTSUNNY   66  64  94 CALM      29.69S
$$
MNZ078>079-086>088-094>096-011400-
   Southeast Minnesota

CITY           SKY/WX    TMP DP  RH WIND       PRES   REMARKS
ROCHESTER      CLOUDY    65  63  93 W8        29.70R FOG
RED WING       PTSUNNY   66  64  94 CALM      29.64F
STANTON        CLOUDY    66  63  91 SW3       29.65S
DODGE CENTER   CLOUDY    64  64 100 W6        29.69S
WINONA         LGT RAIN  66  64  94 CALM      29.67S
AUSTIN         CLOUDY    64  64 100 W5        29.70R
PRESTON        CLOUDY    63  63 100 SW5       29.70R FOG
$$
ABBREVIATIONS USED IN REMARKS
   TC - TEMPERATURES IN CELSIUS
  WCI - WIND CHILL INDEX
   HX - HEAT INDEX
  VSB - VISIBILITY
$$



USA.gov is the U.S. government's official web portal to all federal, state and local government web resources and services.